Year,Month,Day,Hour,Minute,Value (Times are PST for temperature in C)
2006,08,18,00,00,12.30
2006,08,18,00,01,12.30
2006,08,18,00,02,12.30
2006,08,18,00,03,12.30
2006,08,18,00,04,12.30
2006,08,18,00,05,12.30
2006,08,18,00,06,12.30
2006,08,18,00,07,12.30
2006,08,18,00,08,12.20
2006,08,18,00,09,12.20
2006,08,18,00,10,12.20
2006,08,18,00,11,12.20
2006,08,18,00,12,12.20
2006,08,18,00,13,12.20
2006,08,18,00,14,12.20
2006,08,18,00,15,12.20
2006,08,18,00,16,12.10
2006,08,18,00,17,12.10
2006,08,18,00,18,12.10
2006,08,18,00,19,12.10
2006,08,18,00,20,12.10
2006,08,18,00,21,12.10
2006,08,18,00,22,12.10
2006,08,18,00,23,12.10
2006,08,18,00,24,12.10
2006,08,18,00,25,12.10
2006,08,18,00,26,12.10
2006,08,18,00,27,12.10
2006,08,18,00,28,12.10
2006,08,18,00,29,12.00
2006,08,18,00,30,12.00
2006,08,18,00,31,12.00
2006,08,18,00,32,12.00
2006,08,18,00,33,12.00
2006,08,18,00,34,12.00
2006,08,18,00,35,12.00
2006,08,18,00,36,12.00
2006,08,18,00,37,12.00
2006,08,18,00,38,11.90
2006,08,18,00,39,11.90
2006,08,18,00,40,11.90
2006,08,18,00,41,11.90
2006,08,18,00,42,11.90
2006,08,18,00,43,11.90
2006,08,18,00,44,11.90
2006,08,18,00,45,11.90
2006,08,18,00,46,11.90
2006,08,18,00,47,11.90
2006,08,18,00,48,11.90
2006,08,18,00,49,11.90
2006,08,18,00,50,11.90
2006,08,18,00,51,11.80
2006,08,18,00,52,11.80
2006,08,18,00,53,11.80
2006,08,18,00,54,11.80
2006,08,18,00,55,11.80
2006,08,18,00,56,11.80
2006,08,18,00,57,11.80
2006,08,18,00,58,11.80
2006,08,18,00,59,11.80
2006,08,18,01,00,11.80
2006,08,18,01,01,11.80
2006,08,18,01,02,11.80
2006,08,18,01,03,11.80
2006,08,18,01,04,11.80
2006,08,18,01,05,11.80
2006,08,18,01,06,11.80
2006,08,18,01,07,11.80
2006,08,18,01,08,11.80
2006,08,18,01,09,11.80
2006,08,18,01,10,11.80
2006,08,18,01,11,11.80
2006,08,18,01,12,11.80
2006,08,18,01,13,11.80
2006,08,18,01,14,11.80
2006,08,18,01,15,11.80
2006,08,18,01,16,11.80
2006,08,18,01,17,11.80
2006,08,18,01,18,11.80
2006,08,18,01,19,11.80
2006,08,18,01,20,11.80
2006,08,18,01,21,11.80
2006,08,18,01,22,11.80
2006,08,18,01,23,11.80
2006,08,18,01,24,11.80
2006,08,18,01,25,11.80
2006,08,18,01,26,11.80
2006,08,18,01,27,11.80
2006,08,18,01,28,11.80
2006,08,18,01,29,11.80
2006,08,18,01,30,11.80
2006,08,18,01,31,11.80
2006,08,18,01,32,11.80
2006,08,18,01,33,11.80
2006,08,18,01,34,11.80
2006,08,18,01,35,11.80
2006,08,18,01,36,11.80
2006,08,18,01,37,11.80
2006,08,18,01,38,11.70
2006,08,18,01,39,11.70
2006,08,18,01,40,11.70
2006,08,18,01,41,11.70
2006,08,18,01,42,11.70
2006,08,18,01,43,11.70
2006,08,18,01,44,11.60
2006,08,18,01,45,11.60
2006,08,18,01,46,11.60
2006,08,18,01,47,11.60
2006,08,18,01,48,11.60
2006,08,18,01,49,11.60
2006,08,18,01,50,11.60
2006,08,18,01,51,11.60
2006,08,18,01,52,11.60
2006,08,18,01,53,11.60
2006,08,18,01,54,11.50
2006,08,18,01,55,11.50
2006,08,18,01,56,11.40
2006,08,18,01,57,11.40
2006,08,18,01,58,11.40
2006,08,18,01,59,11.40
2006,08,18,02,00,11.40
2006,08,18,02,01,11.40
2006,08,18,02,02,11.40
2006,08,18,02,03,11.40
2006,08,18,02,04,11.40
2006,08,18,02,05,11.40
2006,08,18,02,06,11.40
2006,08,18,02,07,11.40
2006,08,18,02,08,11.40
2006,08,18,02,09,11.40
2006,08,18,02,10,11.40
2006,08,18,02,11,11.40
2006,08,18,02,12,11.30
2006,08,18,02,13,11.30
2006,08,18,02,14,11.30
2006,08,18,02,15,11.30
2006,08,18,02,16,11.30
2006,08,18,02,17,11.30
2006,08,18,02,18,11.30
2006,08,18,02,19,11.30
2006,08,18,02,20,11.30
2006,08,18,02,21,11.30
2006,08,18,02,22,11.30
2006,08,18,02,23,11.30
2006,08,18,02,24,11.30
2006,08,18,02,25,11.20
2006,08,18,02,26,11.20
2006,08,18,02,27,11.20
2006,08,18,02,28,11.20
2006,08,18,02,29,11.20
2006,08,18,02,30,11.10
2006,08,18,02,31,11.10
2006,08,18,02,32,11.10
2006,08,18,02,33,10.90
2006,08,18,02,34,10.90
2006,08,18,02,35,10.90
2006,08,18,02,36,10.80
2006,08,18,02,37,10.80
2006,08,18,02,38,10.80
2006,08,18,02,39,10.70
2006,08,18,02,40,10.70
2006,08,18,02,41,10.70
2006,08,18,02,42,10.70
2006,08,18,02,43,10.70
2006,08,18,02,44,10.70
2006,08,18,02,45,10.70
2006,08,18,02,46,10.70
2006,08,18,02,47,10.60
2006,08,18,02,48,10.60
2006,08,18,02,49,10.60
2006,08,18,02,50,10.60
2006,08,18,02,51,10.60
2006,08,18,02,52,10.60
2006,08,18,02,53,10.60
2006,08,18,02,54,10.60
2006,08,18,02,55,10.60
2006,08,18,02,56,10.60
2006,08,18,02,57,10.60
2006,08,18,02,58,10.50
2006,08,18,02,59,10.40
2006,08,18,03,00,10.30
2006,08,18,03,01,10.20
2006,08,18,03,02,10.20
2006,08,18,03,03,10.10
2006,08,18,03,04,10.10
2006,08,18,03,05,10.10
2006,08,18,03,06,10.00
2006,08,18,03,07,9.90
2006,08,18,03,08,9.90
2006,08,18,03,09,9.90
2006,08,18,03,10,9.90
2006,08,18,03,11,9.90
2006,08,18,03,12,9.90
2006,08,18,03,13,9.90
2006,08,18,03,14,9.90
2006,08,18,03,15,9.80
2006,08,18,03,16,9.80
2006,08,18,03,17,9.80
2006,08,18,03,18,9.70
2006,08,18,03,19,9.70
2006,08,18,03,20,9.70
2006,08,18,03,21,9.70
2006,08,18,03,22,9.70
2006,08,18,03,23,9.70
2006,08,18,03,24,9.70
2006,08,18,03,25,9.70
2006,08,18,03,26,9.70
2006,08,18,03,27,9.70
2006,08,18,03,28,9.70
2006,08,18,03,29,9.70
2006,08,18,03,30,9.70
2006,08,18,03,31,9.70
2006,08,18,03,32,9.70
2006,08,18,03,33,9.70
2006,08,18,03,34,9.70
2006,08,18,03,35,9.80
2006,08,18,03,36,9.80
2006,08,18,03,37,9.80
2006,08,18,03,38,9.80
2006,08,18,03,39,9.80
2006,08,18,03,40,9.80
2006,08,18,03,41,9.80
2006,08,18,03,42,9.80
2006,08,18,03,43,9.70
2006,08,18,03,44,9.70
2006,08,18,03,45,9.70
2006,08,18,03,46,9.70
2006,08,18,03,47,9.70
2006,08,18,03,48,9.70
2006,08,18,03,49,9.70
2006,08,18,03,50,9.70
2006,08,18,03,51,9.60
2006,08,18,03,52,9.60
2006,08,18,03,53,9.60
2006,08,18,03,54,9.60
2006,08,18,03,55,9.60
2006,08,18,03,56,9.60
2006,08,18,03,57,9.60
2006,08,18,03,58,9.70
2006,08,18,03,59,9.70
2006,08,18,04,00,9.70
2006,08,18,04,01,9.70
2006,08,18,04,02,9.70
2006,08,18,04,03,9.70
2006,08,18,04,04,9.70
2006,08,18,04,05,9.70
2006,08,18,04,06,9.70
2006,08,18,04,07,9.60
2006,08,18,04,08,9.50
2006,08,18,04,09,9.50
2006,08,18,04,10,9.40
2006,08,18,04,11,9.40
2006,08,18,04,12,9.40
2006,08,18,04,13,9.40
2006,08,18,04,14,9.40
2006,08,18,04,15,9.40
2006,08,18,04,16,9.40
2006,08,18,04,17,9.40
2006,08,18,04,18,9.50
2006,08,18,04,19,9.50
2006,08,18,04,20,9.50
2006,08,18,04,21,9.50
2006,08,18,04,22,9.50
2006,08,18,04,23,9.50
2006,08,18,04,24,9.50
2006,08,18,04,25,9.50
2006,08,18,04,26,9.50
2006,08,18,04,27,9.50
2006,08,18,04,28,9.50
2006,08,18,04,29,9.50
2006,08,18,04,30,9.50
2006,08,18,04,31,9.50
2006,08,18,04,32,9.40
2006,08,18,04,33,9.40
2006,08,18,04,34,9.30
2006,08,18,04,35,9.20
2006,08,18,04,36,9.10
2006,08,18,04,37,9.00
2006,08,18,04,38,9.00
2006,08,18,04,39,8.90
2006,08,18,04,40,8.80
2006,08,18,04,41,8.80
2006,08,18,04,42,8.70
2006,08,18,04,43,8.70
2006,08,18,04,44,8.70
2006,08,18,04,45,8.70
2006,08,18,04,46,8.70
2006,08,18,04,47,8.70
2006,08,18,04,48,8.70
2006,08,18,04,49,8.70
2006,08,18,04,50,8.70
2006,08,18,04,51,8.70
2006,08,18,04,52,8.70
2006,08,18,04,53,8.70
2006,08,18,04,54,8.70
2006,08,18,04,55,8.70
2006,08,18,04,56,8.70
2006,08,18,04,57,8.70
2006,08,18,04,58,8.80
2006,08,18,04,59,8.80
2006,08,18,05,00,8.80
2006,08,18,05,01,8.80
2006,08,18,05,02,8.80
2006,08,18,05,03,8.70
2006,08,18,05,04,8.70
2006,08,18,05,05,8.70
2006,08,18,05,06,8.70
2006,08,18,05,07,8.70
2006,08,18,05,08,8.70
2006,08,18,05,09,8.70
2006,08,18,05,10,8.70
2006,08,18,05,11,8.70
2006,08,18,05,12,8.70
2006,08,18,05,13,8.70
2006,08,18,05,14,8.60
2006,08,18,05,15,8.60
2006,08,18,05,16,8.60
2006,08,18,05,17,8.60
2006,08,18,05,18,8.60
2006,08,18,05,19,8.70
2006,08,18,05,20,8.70
2006,08,18,05,21,8.70
2006,08,18,05,22,8.70
2006,08,18,05,23,8.70
2006,08,18,05,24,8.70
2006,08,18,05,25,8.80
2006,08,18,05,26,8.80
2006,08,18,05,27,8.90
2006,08,18,05,28,8.90
2006,08,18,05,29,9.00
2006,08,18,05,30,9.00
2006,08,18,05,31,9.00
2006,08,18,05,32,9.00
2006,08,18,05,33,9.00
2006,08,18,05,34,9.00
2006,08,18,05,35,9.10
2006,08,18,05,36,9.10
2006,08,18,05,37,9.10
2006,08,18,05,38,9.10
2006,08,18,05,39,9.10
2006,08,18,05,40,9.00
2006,08,18,05,41,9.00
2006,08,18,05,42,9.00
2006,08,18,05,43,9.00
2006,08,18,05,44,9.00
2006,08,18,05,45,9.00
2006,08,18,05,46,9.00
2006,08,18,05,47,9.00
2006,08,18,05,48,9.00
2006,08,18,05,49,8.90
2006,08,18,05,50,8.90
2006,08,18,05,51,8.90
2006,08,18,05,52,8.80
2006,08,18,05,53,8.90
2006,08,18,05,54,8.90
2006,08,18,05,55,8.90
2006,08,18,05,56,8.90
2006,08,18,05,57,8.90
2006,08,18,05,58,8.90
2006,08,18,05,59,8.90
2006,08,18,06,00,8.90
2006,08,18,06,01,8.90
2006,08,18,06,02,8.90
2006,08,18,06,03,8.90
2006,08,18,06,04,8.90
2006,08,18,06,05,8.90
2006,08,18,06,06,9.00
2006,08,18,06,07,9.00
2006,08,18,06,08,9.10
2006,08,18,06,09,9.10
2006,08,18,06,10,9.20
2006,08,18,06,11,9.20
2006,08,18,06,12,9.10
2006,08,18,06,13,9.00
2006,08,18,06,14,9.00
2006,08,18,06,15,8.90
2006,08,18,06,16,8.90
2006,08,18,06,17,8.90
2006,08,18,06,18,8.90
2006,08,18,06,19,8.90
2006,08,18,06,20,8.90
2006,08,18,06,21,8.90
2006,08,18,06,22,8.90
2006,08,18,06,23,8.90
2006,08,18,06,24,9.00
2006,08,18,06,25,9.00
2006,08,18,06,26,9.00
2006,08,18,06,27,9.10
2006,08,18,06,28,9.10
2006,08,18,06,29,9.10
2006,08,18,06,30,9.20
2006,08,18,06,31,9.20
2006,08,18,06,32,9.20
2006,08,18,06,33,9.20
2006,08,18,06,34,9.20
2006,08,18,06,35,9.20
2006,08,18,06,36,9.20
2006,08,18,06,37,9.20
2006,08,18,06,38,9.20
2006,08,18,06,39,9.20
2006,08,18,06,40,9.20
2006,08,18,06,41,9.20
2006,08,18,06,42,9.20
2006,08,18,06,43,9.20
2006,08,18,06,44,9.20
2006,08,18,06,45,9.20
2006,08,18,06,46,9.20
2006,08,18,06,47,9.20
2006,08,18,06,48,9.20
2006,08,18,06,49,9.20
2006,08,18,06,50,9.20
2006,08,18,06,51,9.20
2006,08,18,06,52,9.20
2006,08,18,06,53,9.20
2006,08,18,06,54,9.10
2006,08,18,06,55,9.10
2006,08,18,06,56,9.10
2006,08,18,06,57,9.10
2006,08,18,06,58,9.10
2006,08,18,06,59,9.10
2006,08,18,07,00,9.10
2006,08,18,07,01,9.10
2006,08,18,07,02,9.10
2006,08,18,07,03,9.10
2006,08,18,07,04,9.10
2006,08,18,07,05,9.10
2006,08,18,07,06,9.10
2006,08,18,07,07,9.10
2006,08,18,07,08,9.20
2006,08,18,07,09,9.20
2006,08,18,07,10,9.20
2006,08,18,07,11,9.20
2006,08,18,07,12,9.20
2006,08,18,07,13,9.30
2006,08,18,07,14,9.30
2006,08,18,07,15,9.40
2006,08,18,07,16,9.50
2006,08,18,07,17,9.50
2006,08,18,07,18,9.60
2006,08,18,07,19,9.70
2006,08,18,07,20,9.70
2006,08,18,07,21,9.70
2006,08,18,07,22,9.70
2006,08,18,07,23,9.80
2006,08,18,07,24,9.80
2006,08,18,07,25,9.90
2006,08,18,07,26,9.90
2006,08,18,07,27,9.90
2006,08,18,07,28,10.00
2006,08,18,07,29,10.10
2006,08,18,07,30,10.10
2006,08,18,07,31,10.20
2006,08,18,07,32,10.20
2006,08,18,07,33,10.20
2006,08,18,07,34,10.30
2006,08,18,07,35,10.30
2006,08,18,07,36,10.40
2006,08,18,07,37,10.40
2006,08,18,07,38,10.50
2006,08,18,07,39,10.60
2006,08,18,07,40,10.60
2006,08,18,07,41,10.70
2006,08,18,07,42,10.70
2006,08,18,07,43,10.80
2006,08,18,07,44,10.90
2006,08,18,07,45,11.00
2006,08,18,07,46,11.10
2006,08,18,07,47,11.20
2006,08,18,07,48,11.40
2006,08,18,07,49,11.50
2006,08,18,07,50,11.70
2006,08,18,07,51,11.90
2006,08,18,07,52,12.10
2006,08,18,07,53,12.20
2006,08,18,07,54,12.40
2006,08,18,07,55,12.50
2006,08,18,07,56,12.70
2006,08,18,07,57,12.80
2006,08,18,07,58,13.00
2006,08,18,07,59,13.10
2006,08,18,08,00,13.30
2006,08,18,08,01,13.40
2006,08,18,08,02,13.50
2006,08,18,08,03,13.60
2006,08,18,08,04,13.70
2006,08,18,08,05,13.80
2006,08,18,08,06,13.90
2006,08,18,08,07,13.90
2006,08,18,08,08,14.00
2006,08,18,08,09,14.00
2006,08,18,08,10,14.10
2006,08,18,08,11,14.20
2006,08,18,08,12,14.20
2006,08,18,08,13,14.30
2006,08,18,08,14,14.30
2006,08,18,08,15,14.40
2006,08,18,08,16,14.40
2006,08,18,08,17,14.40
2006,08,18,08,18,14.50
2006,08,18,08,19,14.50
2006,08,18,08,20,14.50
2006,08,18,08,21,14.50
2006,08,18,08,22,14.50
2006,08,18,08,23,14.50
2006,08,18,08,24,14.60
2006,08,18,08,25,14.60
2006,08,18,08,26,14.60
2006,08,18,08,27,14.60
2006,08,18,08,28,14.60
2006,08,18,08,29,14.60
2006,08,18,08,30,14.60
2006,08,18,08,31,14.50
2006,08,18,08,32,14.50
2006,08,18,08,33,14.40
2006,08,18,08,34,14.40
2006,08,18,08,35,14.30
2006,08,18,08,36,14.20
2006,08,18,08,37,14.20
2006,08,18,08,38,14.20
2006,08,18,08,39,14.20
2006,08,18,08,40,14.20
2006,08,18,08,41,14.20
2006,08,18,08,42,14.20
2006,08,18,08,43,14.20
2006,08,18,08,44,14.20
2006,08,18,08,45,14.20
2006,08,18,08,46,14.20
2006,08,18,08,47,14.20
2006,08,18,08,48,14.20
2006,08,18,08,49,14.30
2006,08,18,08,50,14.40
2006,08,18,08,51,14.40
2006,08,18,08,52,14.40
2006,08,18,08,53,14.40
2006,08,18,08,54,14.40
2006,08,18,08,55,14.30
2006,08,18,08,56,14.30
2006,08,18,08,57,14.30
2006,08,18,08,58,14.40
2006,08,18,08,59,14.40
2006,08,18,09,00,14.40
2006,08,18,09,01,14.50
2006,08,18,09,02,14.50
2006,08,18,09,03,14.50
2006,08,18,09,04,14.60
2006,08,18,09,05,14.60
2006,08,18,09,06,14.70
2006,08,18,09,07,14.80
2006,08,18,09,08,14.80
2006,08,18,09,09,14.90
2006,08,18,09,10,14.90
2006,08,18,09,11,14.90
2006,08,18,09,12,14.90
2006,08,18,09,13,15.00
2006,08,18,09,14,15.00
2006,08,18,09,15,15.10
2006,08,18,09,16,15.20
2006,08,18,09,17,15.30
2006,08,18,09,18,15.40
2006,08,18,09,19,15.50
2006,08,18,09,20,15.60
2006,08,18,09,21,15.60
2006,08,18,09,22,15.70
2006,08,18,09,23,15.70
2006,08,18,09,24,15.70
2006,08,18,09,25,15.60
2006,08,18,09,26,15.50
2006,08,18,09,27,15.50
2006,08,18,09,28,15.50
2006,08,18,09,29,15.50
2006,08,18,09,30,15.50
2006,08,18,09,31,15.50
2006,08,18,09,32,15.50
2006,08,18,09,33,15.50
2006,08,18,09,34,15.50
2006,08,18,09,35,15.60
2006,08,18,09,36,15.60
2006,08,18,09,37,15.70
2006,08,18,09,38,15.80
2006,08,18,09,39,15.80
2006,08,18,09,40,15.90
2006,08,18,09,41,16.10
2006,08,18,09,42,16.10
2006,08,18,09,43,16.20
2006,08,18,09,44,16.20
2006,08,18,09,45,16.20
2006,08,18,09,46,16.30
2006,08,18,09,47,16.30
2006,08,18,09,48,16.30
2006,08,18,09,49,16.40
2006,08,18,09,50,16.40
2006,08,18,09,51,16.40
2006,08,18,09,52,16.40
2006,08,18,09,53,16.40
2006,08,18,09,54,16.30
2006,08,18,09,55,16.30
2006,08,18,09,56,16.40
2006,08,18,09,57,16.30
2006,08,18,09,58,16.30
2006,08,18,09,59,16.30
2006,08,18,10,00,16.30
2006,08,18,10,01,16.40
2006,08,18,10,02,16.40
2006,08,18,10,03,16.50
2006,08,18,10,04,16.60
2006,08,18,10,05,16.60
2006,08,18,10,06,16.60
2006,08,18,10,07,16.50
2006,08,18,10,08,16.40
2006,08,18,10,09,16.40
2006,08,18,10,10,16.40
2006,08,18,10,11,16.40
2006,08,18,10,12,16.40
2006,08,18,10,13,16.40
2006,08,18,10,14,16.50
2006,08,18,10,15,16.60
2006,08,18,10,16,16.70
2006,08,18,10,17,16.80
2006,08,18,10,18,16.80
2006,08,18,10,19,16.90
2006,08,18,10,20,16.90
2006,08,18,10,21,17.00
2006,08,18,10,22,17.00
2006,08,18,10,23,17.00
2006,08,18,10,24,17.00
2006,08,18,10,25,17.00
2006,08,18,10,26,17.00
2006,08,18,10,27,16.90
2006,08,18,10,28,16.90
2006,08,18,10,29,16.90
2006,08,18,10,30,16.90
2006,08,18,10,31,16.90
2006,08,18,10,32,16.90
2006,08,18,10,33,16.90
2006,08,18,10,34,17.00
2006,08,18,10,35,17.00
2006,08,18,10,36,17.00
2006,08,18,10,37,17.00
2006,08,18,10,38,17.10
2006,08,18,10,39,17.20
2006,08,18,10,40,17.20
2006,08,18,10,41,17.20
2006,08,18,10,42,17.20
2006,08,18,10,43,17.20
2006,08,18,10,44,17.20
2006,08,18,10,45,17.20
2006,08,18,10,46,17.20
2006,08,18,10,47,17.20
2006,08,18,10,48,17.20
2006,08,18,10,49,17.20
2006,08,18,10,50,17.20
2006,08,18,10,51,17.30
2006,08,18,10,52,17.30
2006,08,18,10,53,17.30
2006,08,18,10,54,17.30
2006,08,18,10,55,17.30
2006,08,18,10,56,17.30
2006,08,18,10,57,17.30
2006,08,18,10,58,17.30
2006,08,18,10,59,17.30
2006,08,18,11,00,17.30
2006,08,18,11,01,17.30
2006,08,18,11,02,17.30
2006,08,18,11,03,17.30
2006,08,18,11,04,17.40
2006,08,18,11,05,17.50
2006,08,18,11,06,17.70
2006,08,18,11,07,17.70
2006,08,18,11,08,17.70
2006,08,18,11,09,17.80
2006,08,18,11,10,17.80
2006,08,18,11,11,17.80
2006,08,18,11,12,17.80
2006,08,18,11,13,17.90
2006,08,18,11,14,17.90
2006,08,18,11,15,17.90
2006,08,18,11,16,17.90
2006,08,18,11,17,17.90
2006,08,18,11,18,17.90
2006,08,18,11,19,17.90
2006,08,18,11,20,17.90
2006,08,18,11,21,17.90
2006,08,18,11,22,17.90
2006,08,18,11,23,18.10
2006,08,18,11,24,18.10
2006,08,18,11,25,18.10
2006,08,18,11,26,18.20
2006,08,18,11,27,18.20
2006,08,18,11,28,18.20
2006,08,18,11,29,18.20
2006,08,18,11,30,18.20
2006,08,18,11,31,18.20
2006,08,18,11,32,18.20
2006,08,18,11,33,18.20
2006,08,18,11,34,18.20
2006,08,18,11,35,18.20
2006,08,18,11,36,18.20
2006,08,18,11,37,18.20
2006,08,18,11,38,18.20
2006,08,18,11,39,18.20
2006,08,18,11,40,18.20
2006,08,18,11,41,18.20
2006,08,18,11,42,18.20
2006,08,18,11,43,18.20
2006,08,18,11,44,18.20
2006,08,18,11,45,18.20
2006,08,18,11,46,18.30
2006,08,18,11,47,18.30
2006,08,18,11,48,18.40
2006,08,18,11,49,18.50
2006,08,18,11,50,18.60
2006,08,18,11,51,18.70
2006,08,18,11,52,18.70
2006,08,18,11,53,18.80
2006,08,18,11,54,18.80
2006,08,18,11,55,18.70
2006,08,18,11,56,18.60
2006,08,18,11,57,18.50
2006,08,18,11,58,18.40
2006,08,18,11,59,18.30
2006,08,18,12,00,18.40
2006,08,18,12,01,18.50
2006,08,18,12,02,18.60
2006,08,18,12,03,18.70
2006,08,18,12,04,18.70
2006,08,18,12,05,18.70
2006,08,18,12,06,18.70
2006,08,18,12,07,18.70
2006,08,18,12,08,18.60
2006,08,18,12,09,18.60
2006,08,18,12,10,18.60
2006,08,18,12,11,18.50
2006,08,18,12,12,18.60
2006,08,18,12,13,18.60
2006,08,18,12,14,18.80
2006,08,18,12,15,18.90
2006,08,18,12,16,18.90
2006,08,18,12,17,18.90
2006,08,18,12,18,18.90
2006,08,18,12,19,18.80
2006,08,18,12,20,18.70
2006,08,18,12,21,18.70
2006,08,18,12,22,18.60
2006,08,18,12,23,18.60
2006,08,18,12,24,18.60
2006,08,18,12,25,18.70
2006,08,18,12,26,18.70
2006,08,18,12,27,18.70
2006,08,18,12,28,18.80
2006,08,18,12,29,18.90
2006,08,18,12,30,18.90
2006,08,18,12,31,19.00
2006,08,18,12,32,19.10
2006,08,18,12,33,19.10
2006,08,18,12,34,19.10
2006,08,18,12,35,19.10
2006,08,18,12,36,19.00
2006,08,18,12,37,18.90
2006,08,18,12,38,19.00
2006,08,18,12,39,19.10
2006,08,18,12,40,19.10
2006,08,18,12,41,19.10
2006,08,18,12,42,19.10
2006,08,18,12,43,19.10
2006,08,18,12,44,19.10
2006,08,18,12,45,19.10
2006,08,18,12,46,19.10
2006,08,18,12,47,19.10
2006,08,18,12,48,19.10
2006,08,18,12,49,19.10
2006,08,18,12,50,19.10
2006,08,18,12,51,19.10
2006,08,18,12,52,19.10
2006,08,18,12,53,19.20
2006,08,18,12,54,19.20
2006,08,18,12,55,19.20
2006,08,18,12,56,19.20
2006,08,18,12,57,19.20
2006,08,18,12,58,19.10
2006,08,18,12,59,19.10
2006,08,18,13,00,19.10
2006,08,18,13,01,19.10
2006,08,18,13,02,19.10
2006,08,18,13,03,19.10
2006,08,18,13,04,19.10
2006,08,18,13,05,19.20
2006,08,18,13,06,19.20
2006,08,18,13,07,19.30
2006,08,18,13,08,19.30
2006,08,18,13,09,19.20
2006,08,18,13,10,19.20
2006,08,18,13,11,19.20
2006,08,18,13,12,19.10
2006,08,18,13,13,19.10
2006,08,18,13,14,19.10
2006,08,18,13,15,19.10
2006,08,18,13,16,19.10
2006,08,18,13,17,19.10
2006,08,18,13,18,19.10
2006,08,18,13,19,19.10
2006,08,18,13,20,19.10
2006,08,18,13,21,19.10
2006,08,18,13,22,19.10
2006,08,18,13,23,19.10
2006,08,18,13,24,19.10
2006,08,18,13,25,19.10
2006,08,18,13,26,19.10
2006,08,18,13,27,19.10
2006,08,18,13,28,19.20
2006,08,18,13,29,19.20
2006,08,18,13,30,19.20
2006,08,18,13,31,19.10
2006,08,18,13,32,19.10
2006,08,18,13,33,19.10
2006,08,18,13,34,19.10
2006,08,18,13,35,19.10
2006,08,18,13,36,19.10
2006,08,18,13,37,19.20
2006,08,18,13,38,19.30
2006,08,18,13,39,19.40
2006,08,18,13,40,19.50
2006,08,18,13,41,19.60
2006,08,18,13,42,19.60
2006,08,18,13,43,19.60
2006,08,18,13,44,19.70
2006,08,18,13,45,19.70
2006,08,18,13,46,19.70
2006,08,18,13,47,19.80
2006,08,18,13,48,19.90
2006,08,18,13,49,19.90
2006,08,18,13,50,19.90
2006,08,18,13,51,19.90
2006,08,18,13,52,19.90
2006,08,18,13,53,19.90
2006,08,18,13,54,19.90
2006,08,18,13,55,19.90
2006,08,18,13,56,19.90
2006,08,18,13,57,19.90
2006,08,18,13,58,20.00
2006,08,18,13,59,20.10
2006,08,18,14,00,20.10
2006,08,18,14,01,20.10
2006,08,18,14,02,20.10
2006,08,18,14,03,20.00
2006,08,18,14,04,19.90
2006,08,18,14,05,19.90
2006,08,18,14,06,19.90
2006,08,18,14,07,19.80
2006,08,18,14,08,19.80
2006,08,18,14,09,19.80
2006,08,18,14,10,19.80
2006,08,18,14,11,19.90
2006,08,18,14,12,19.90
2006,08,18,14,13,19.90
2006,08,18,14,14,20.00
2006,08,18,14,15,20.10
2006,08,18,14,16,20.10
2006,08,18,14,17,20.10
2006,08,18,14,18,20.20
2006,08,18,14,19,20.20
2006,08,18,14,20,20.20
2006,08,18,14,21,20.20
2006,08,18,14,22,20.20
2006,08,18,14,23,20.30
2006,08,18,14,24,20.40
2006,08,18,14,25,20.50
2006,08,18,14,26,20.60
2006,08,18,14,27,20.60
2006,08,18,14,28,20.60
2006,08,18,14,29,20.60
2006,08,18,14,30,20.60
2006,08,18,14,31,20.50
2006,08,18,14,32,20.50
2006,08,18,14,33,20.50
2006,08,18,14,34,20.50
2006,08,18,14,35,20.40
2006,08,18,14,36,20.50
2006,08,18,14,37,20.50
2006,08,18,14,38,20.50
2006,08,18,14,39,20.50
2006,08,18,14,40,20.50
2006,08,18,14,41,20.40
2006,08,18,14,42,20.40
2006,08,18,14,43,20.40
2006,08,18,14,44,20.40
2006,08,18,14,45,20.40
2006,08,18,14,46,20.50
2006,08,18,14,47,20.50
2006,08,18,14,48,20.60
2006,08,18,14,49,20.70
2006,08,18,14,50,20.70
2006,08,18,14,51,20.60
2006,08,18,14,52,20.60
2006,08,18,14,53,20.50
2006,08,18,14,54,20.50
2006,08,18,14,55,20.50
2006,08,18,14,56,20.60
2006,08,18,14,57,20.60
2006,08,18,14,58,20.60
2006,08,18,14,59,20.60
2006,08,18,15,00,20.60
2006,08,18,15,01,20.70
2006,08,18,15,02,20.70
2006,08,18,15,03,20.80
2006,08,18,15,04,20.70
2006,08,18,15,05,20.70
2006,08,18,15,06,20.80
2006,08,18,15,07,20.80
2006,08,18,15,08,20.90
2006,08,18,15,09,21.00
2006,08,18,15,10,21.10
2006,08,18,15,11,21.10
2006,08,18,15,12,21.10
2006,08,18,15,13,21.10
2006,08,18,15,14,21.10
2006,08,18,15,15,21.10
2006,08,18,15,16,21.10
2006,08,18,15,17,21.20
2006,08,18,15,18,21.30
2006,08,18,15,19,21.40
2006,08,18,15,20,21.60
2006,08,18,15,21,21.60
2006,08,18,15,22,21.60
2006,08,18,15,23,21.80
2006,08,18,15,24,21.90
2006,08,18,15,25,21.90
2006,08,18,15,26,22.00
2006,08,18,15,27,22.00
2006,08,18,15,28,22.10
2006,08,18,15,29,22.10
2006,08,18,15,30,22.00
2006,08,18,15,31,21.90
2006,08,18,15,32,22.00
2006,08,18,15,33,22.00
2006,08,18,15,34,21.90
2006,08,18,15,35,21.80
2006,08,18,15,36,21.90
2006,08,18,15,37,21.90
2006,08,18,15,38,21.90
2006,08,18,15,39,21.90
2006,08,18,15,40,21.80
2006,08,18,15,41,21.60
2006,08,18,15,42,21.50
2006,08,18,15,43,21.40
2006,08,18,15,44,21.40
2006,08,18,15,45,21.40
2006,08,18,15,46,21.50
2006,08,18,15,47,21.60
2006,08,18,15,48,21.60
2006,08,18,15,49,21.60
2006,08,18,15,50,21.60
2006,08,18,15,51,21.60
2006,08,18,15,52,21.60
2006,08,18,15,53,21.70
2006,08,18,15,54,21.80
2006,08,18,15,55,21.80
2006,08,18,15,56,21.90
2006,08,18,15,57,21.90
2006,08,18,15,58,21.90
2006,08,18,15,59,22.00
2006,08,18,16,00,22.00
2006,08,18,16,01,22.00
2006,08,18,16,02,22.10
2006,08,18,16,03,22.10
2006,08,18,16,04,22.20
2006,08,18,16,05,22.20
2006,08,18,16,06,22.30
2006,08,18,16,07,22.30
2006,08,18,16,08,22.20
2006,08,18,16,09,22.20
2006,08,18,16,10,22.20
2006,08,18,16,11,22.10
2006,08,18,16,12,22.00
2006,08,18,16,13,21.90
2006,08,18,16,14,22.00
2006,08,18,16,15,22.00
2006,08,18,16,16,22.10
2006,08,18,16,17,22.20
2006,08,18,16,18,22.20
2006,08,18,16,19,22.20
2006,08,18,16,20,22.20
2006,08,18,16,21,22.30
2006,08,18,16,22,22.30
2006,08,18,16,23,22.30
2006,08,18,16,24,22.30
2006,08,18,16,25,22.40
2006,08,18,16,26,22.40
2006,08,18,16,27,22.50
2006,08,18,16,28,22.50
2006,08,18,16,29,22.50
2006,08,18,16,30,22.50
2006,08,18,16,31,22.40
2006,08,18,16,32,22.40
2006,08,18,16,33,22.40
2006,08,18,16,34,22.40
2006,08,18,16,35,22.40
2006,08,18,16,36,22.50
2006,08,18,16,37,22.60
2006,08,18,16,38,22.70
2006,08,18,16,39,22.80
2006,08,18,16,40,22.90
2006,08,18,16,41,22.90
2006,08,18,16,42,23.00
2006,08,18,16,43,23.10
2006,08,18,16,44,23.10
2006,08,18,16,45,23.00
2006,08,18,16,46,22.90
2006,08,18,16,47,22.90
2006,08,18,16,48,22.90
2006,08,18,16,49,23.00
2006,08,18,16,50,23.10
2006,08,18,16,51,23.10
2006,08,18,16,52,23.10
2006,08,18,16,53,23.10
2006,08,18,16,54,23.10
2006,08,18,16,55,23.10
2006,08,18,16,56,23.10
2006,08,18,16,57,22.90
2006,08,18,16,58,22.90
2006,08,18,16,59,23.00
2006,08,18,17,00,23.10
2006,08,18,17,01,23.10
2006,08,18,17,02,23.20
2006,08,18,17,03,23.20
2006,08,18,17,04,23.10
2006,08,18,17,05,22.90
2006,08,18,17,06,22.90
2006,08,18,17,07,22.90
2006,08,18,17,08,22.90
2006,08,18,17,09,22.90
2006,08,18,17,10,22.80
2006,08,18,17,11,22.80
2006,08,18,17,12,22.70
2006,08,18,17,13,22.70
2006,08,18,17,14,22.70
2006,08,18,17,15,22.70
2006,08,18,17,16,22.70
2006,08,18,17,17,22.60
2006,08,18,17,18,22.60
2006,08,18,17,19,22.50
2006,08,18,17,20,22.50
2006,08,18,17,21,22.40
2006,08,18,17,22,22.40
2006,08,18,17,23,22.40
2006,08,18,17,24,22.40
2006,08,18,17,25,22.40
2006,08,18,17,26,22.40
2006,08,18,17,27,22.40
2006,08,18,17,28,22.40
2006,08,18,17,29,22.40
2006,08,18,17,30,22.40